Jennings, LA

7:19 AM CDT on May 25, 2017 (GMT -0500)
Jennings

Weather History for K3R7 - February, 2013

Change the Weather History Date:

Tuesday, February 26, 2013

  Actual Average (KCWF) Record (KCWF)
Temperature  
Mean Temperature 52 °F -  
Max Temperature 61 °F 64 °F 75 °F (1999)
Min Temperature 42 °F 51 °F 35 °F (2015)
Degree Days  
Heating Degree Days 14    
Growing Degree Days 2 (Base 50)    
Moisture  
Dew Point 38 °F    
Average Humidity 61    
Maximum Humidity 83    
Minimum Humidity 41    
Precipitation  
Precipitation 0.00 in - - ()
Sea Level Pressure  
Sea Level Pressure 29.81 in    
Wind  
Wind Speed 14 mph (West)    
Max Wind Speed 24 mph    
Max Gust Speed 33 mph    
Visibility 10 miles    
Events      
Averages and records for this station are not official NWS values.
T = Trace of Precipitation, MM = Missing Value Source: NWS Daily Summary

Daily Weather History Graph

Daily Weather History Graph

Search for Another Location

Airport or City:

Trip Planner

Search our weather history database for the weather conditions in past years. The results will help you decide how hot, cold, wet, or windy it might be!

Date:

Astronomy

Feb. 26, 2013 Rise Set
Actual Time 6:39 AM CST 6:07 PM CST
Civil Twilight 6:15 AM CST 6:31 PM CST
Nautical Twilight 5:47 AM CST 6:59 PM CST
Astronomical Twilight 5:19 AM CST 7:27 PM CST
Moon 7:15 PM CST (2/26) 6:49 AM CST (2/26)
Length of Visible Light 12h 16m
Length of Day
11h 28m
Full, 99% of the Moon is Illuminated
Feb 26
Full
Mar 4
Last Quarter
Mar 11
New
Mar 19
First Quarter
Mar 27
Full

Hourly Weather History & Observations

Time (CST) Temp. Windchill Dew Point Humidity Pressure Visibility Wind Dir Wind Speed Gust Speed Precip Events Conditions
12:15 AM 47.8 °F - 34.5 °F 60% 29.66 in 10.0 mi West 15.0 mph 20.7 mph N/A   Clear
12:35 AM 47.5 °F - 34.7 °F 61% 29.67 in 10.0 mi West 18.4 mph - N/A   Clear
12:55 AM 47.1 °F - 34.0 °F 60% 29.68 in 10.0 mi West 18.4 mph 25.3 mph N/A   Clear
1:15 AM 46.9 °F - 32.5 °F 57% 29.69 in 10.0 mi West 23.0 mph 33.4 mph N/A   Clear
1:35 AM 46.4 °F 38.1 °F 32.9 °F 59% 29.69 in 10.0 mi West 24.2 mph 28.8 mph N/A   Clear
1:55 AM 46.4 °F 38.3 °F 32.7 °F 59% 29.70 in 10.0 mi West 23.0 mph 29.9 mph N/A   Clear
2:15 AM 45.5 °F 38.9 °F 33.4 °F 63% 29.69 in 10.0 mi West 15.0 mph 21.9 mph N/A   Scattered Clouds
2:35 AM 45.7 °F 39.5 °F 34.2 °F 64% 29.69 in 10.0 mi West 13.8 mph 20.7 mph N/A   Overcast
2:55 AM 46.4 °F 39.2 °F 33.8 °F 62% 29.70 in 10.0 mi West 18.4 mph 25.3 mph N/A   Overcast
3:15 AM 46.4 °F 38.7 °F 33.4 °F 61% 29.70 in 10.0 mi West 20.7 mph 26.5 mph N/A   Overcast
3:35 AM 45.7 °F 37.6 °F 33.1 °F 61% 29.70 in 10.0 mi West 21.9 mph 27.6 mph N/A   Mostly Cloudy
3:55 AM 45.3 °F 37.8 °F 32.5 °F 61% 29.71 in 10.0 mi West 18.4 mph 31.1 mph N/A   Scattered Clouds
4:15 AM 44.6 °F 37.4 °F 32.7 °F 63% 29.71 in 10.0 mi West 16.1 mph 26.5 mph N/A   Scattered Clouds
4:35 AM 43.9 °F 37.2 °F 32.7 °F 65% 29.72 in 10.0 mi West 13.8 mph - N/A   Clear
4:55 AM 43.5 °F 36.7 °F 32.9 °F 66% 29.72 in 10.0 mi West 13.8 mph 18.4 mph N/A   Clear
5:15 AM 43.0 °F 37.2 °F 33.6 °F 70% 29.73 in 10.0 mi West 10.4 mph - N/A   Clear
5:35 AM 42.8 °F 36.6 °F 33.4 °F 70% 29.73 in 10.0 mi West 11.5 mph - N/A   Clear
5:55 AM 42.8 °F 37.0 °F 33.4 °F 70% 29.74 in 10.0 mi West 10.4 mph - N/A   Clear
6:15 AM 42.4 °F 37.0 °F 33.3 °F 70% 29.74 in 10.0 mi West 9.2 mph - N/A   Clear
6:35 AM 42.8 °F 37.5 °F 33.3 °F 69% 29.75 in 10.0 mi West 9.2 mph - N/A   Clear
6:55 AM 42.8 °F 37.0 °F 33.6 °F 70% 29.76 in 10.0 mi West 10.4 mph - N/A   Clear
7:15 AM 43.2 °F 37.4 °F 33.6 °F 69% 29.77 in 10.0 mi West 10.4 mph 17.3 mph N/A   Clear
7:35 AM 44.6 °F 38.4 °F 33.6 °F 65% 29.78 in 10.0 mi West 12.7 mph 20.7 mph N/A   Clear
7:55 AM 45.1 °F 37.1 °F 33.8 °F 65% 29.80 in 10.0 mi West 20.7 mph 26.5 mph N/A   Clear
8:15 AM 45.9 °F 38.8 °F 34.2 °F 64% 29.81 in 10.0 mi West 17.3 mph 23.0 mph N/A   Clear
8:35 AM 46.8 °F - 34.9 °F 63% 29.82 in 10.0 mi West 19.6 mph 25.3 mph N/A   Scattered Clouds
8:55 AM 47.3 °F - 34.9 °F 62% 29.82 in 10.0 mi West 19.6 mph 26.5 mph N/A   Clear
9:15 AM 47.8 °F - 34.7 °F 60% 29.83 in 10.0 mi WNW 19.6 mph 27.6 mph N/A   Clear
9:35 AM 48.7 °F - 35.6 °F 60% 29.83 in 10.0 mi West 19.6 mph 25.3 mph N/A   Clear
9:55 AM 49.5 °F - 35.6 °F 59% 29.83 in 10.0 mi West 18.4 mph 26.5 mph N/A   Clear
10:15 AM 50.2 °F - 35.8 °F 58% 29.84 in 10.0 mi WNW 20.7 mph 25.3 mph N/A   Scattered Clouds
10:35 AM 51.4 °F - 36.0 °F 56% 29.85 in 10.0 mi WNW 16.1 mph 24.2 mph N/A   Clear
10:55 AM 51.8 °F - 35.8 °F 54% 29.85 in 10.0 mi West 16.1 mph 24.2 mph N/A   Clear
11:15 AM 52.7 °F - 36.3 °F 54% 29.85 in 10.0 mi West 15.0 mph 21.9 mph N/A   Clear
11:35 AM 54.0 °F - 37.6 °F 54% 29.84 in 10.0 mi West 12.7 mph - N/A   Clear
11:55 AM 54.5 °F - 37.4 °F 52% 29.84 in 10.0 mi West 13.8 mph 18.4 mph N/A   Clear
12:15 PM 55.9 °F - 37.9 °F 51% 29.84 in 10.0 mi WNW 15.0 mph 20.7 mph N/A   Clear
12:35 PM 55.8 °F - 37.6 °F 51% 29.83 in 10.0 mi WNW 12.7 mph 20.7 mph N/A   Clear
12:55 PM 57.0 °F - 38.5 °F 50% 29.82 in 10.0 mi West 16.1 mph - N/A   Clear
1:15 PM 57.2 °F - 38.3 °F 49% 29.81 in 10.0 mi WNW 12.7 mph 17.3 mph N/A   Clear
1:35 PM 57.6 °F - 37.6 °F 47% 29.80 in 10.0 mi West 16.1 mph - N/A   Clear
1:55 PM 58.6 °F - 38.3 °F 47% 29.80 in 10.0 mi WNW 17.3 mph 23.0 mph N/A   Clear
2:15 PM 59.5 °F - 38.3 °F 45% 29.80 in 10.0 mi West 15.0 mph 20.7 mph N/A   Clear
2:35 PM 59.9 °F - 38.3 °F 45% 29.80 in 10.0 mi WNW 11.5 mph - N/A   Clear
2:55 PM 60.8 °F - 38.5 °F 44% 29.80 in 10.0 mi West 13.8 mph - N/A   Clear
3:15 PM 60.8 °F - 38.3 °F 43% 29.79 in 10.0 mi WNW 12.7 mph 17.3 mph N/A   Clear
3:35 PM 61.7 °F - 38.5 °F 42% 29.80 in 10.0 mi WNW 12.7 mph 16.1 mph N/A   Clear
3:55 PM 61.7 °F - 38.5 °F 42% 29.81 in 10.0 mi West 13.8 mph 17.3 mph N/A   Clear
4:15 PM 61.7 °F - 37.6 °F 41% 29.82 in 10.0 mi WNW 12.7 mph - N/A   Clear
4:35 PM 61.3 °F - 37.4 °F 41% 29.83 in 10.0 mi West 13.8 mph 18.4 mph N/A   Clear
4:55 PM 59.9 °F - 37.8 °F 44% 29.83 in 10.0 mi WNW 9.2 mph - N/A   Clear
5:15 PM 59.9 °F - 38.7 °F 45% 29.83 in 10.0 mi WNW 8.1 mph - N/A   Clear
5:35 PM 58.3 °F - 40.8 °F 52% 29.83 in 10.0 mi WNW 5.8 mph - N/A   Clear
5:55 PM 57.0 °F - 41.5 °F 56% 29.84 in 10.0 mi WNW 5.8 mph - N/A   Clear
6:15 PM 56.1 °F - 42.3 °F 60% 29.86 in 10.0 mi West 4.6 mph - N/A   Clear
6:35 PM 55.4 °F - 42.3 °F 61% 29.87 in 10.0 mi West 4.6 mph - N/A   Clear
6:55 PM 53.8 °F - 43.0 °F 67% 29.87 in 10.0 mi Calm Calm - N/A   Clear
7:15 PM 54.1 °F - 43.5 °F 67% 29.88 in 10.0 mi Calm Calm - N/A   Clear
7:35 PM 53.8 °F - 43.3 °F 68% 29.89 in 10.0 mi Calm Calm - N/A   Clear
7:55 PM 54.0 °F - 42.8 °F 66% 29.89 in 10.0 mi Calm Calm - N/A   Clear
8:15 PM 53.6 °F - 42.8 °F 67% 29.90 in 10.0 mi Calm Calm - N/A   Clear
8:35 PM 52.9 °F - 42.4 °F 68% 29.90 in 10.0 mi Calm Calm - N/A   Clear
8:55 PM 51.8 °F - 43.9 °F 74% 29.90 in 10.0 mi Calm Calm - N/A   Clear
9:15 PM 50.9 °F - 43.7 °F 76% 29.91 in 10.0 mi Calm Calm - N/A   Clear
9:35 PM 50.9 °F - 44.4 °F 78% 29.92 in 10.0 mi Calm Calm - N/A   Clear
9:55 PM 50.4 °F - 43.9 °F 78% 29.93 in 10.0 mi Calm Calm - N/A   Clear
10:15 PM 50.7 °F - 44.2 °F 78% 29.93 in 10.0 mi Calm Calm - N/A   Clear
10:35 PM 50.5 °F - 44.2 °F 79% 29.93 in 10.0 mi Calm Calm - N/A   Clear
10:55 PM 50.2 °F - 43.0 °F 76% 29.94 in 10.0 mi Calm Calm - N/A   Clear
11:15 PM 50.0 °F - 44.1 °F 80% 29.94 in 10.0 mi Calm Calm - N/A   Clear
11:35 PM 49.1 °F - 43.3 °F 81% 29.94 in 10.0 mi Calm Calm - N/A   Clear
11:55 PM 49.3 °F - 44.4 °F 83% 29.94 in 10.0 mi Calm Calm - N/A   Clear